Seward, AK

9:22 PM AKDT on May 25, 2017 (GMT -0800)
Seward

Weather History for PAWD - April, 2014

Change the Weather History Date:

Monday, April 14, 2014

  Actual Average Record
Temperature  
Mean Temperature 39 °F -  
Max Temperature 48 °F 42 °F 58 °F (1965)
Min Temperature 30 °F 30 °F 13 °F (1977)
Degree Days  
Heating Degree Days 26    
Moisture  
Dew Point 32 °F    
Average Humidity 85    
Maximum Humidity 96    
Minimum Humidity 48    
Precipitation  
Precipitation 0.00 in - - ()
Sea Level Pressure  
Sea Level Pressure 29.96 in    
Wind  
Wind Speed 3 mph (North)    
Max Wind Speed 12 mph    
Max Gust Speed -    
Visibility 6 miles    
Events Fog , Snow    
Averages and records for this station are not official NWS values.
T = Trace of Precipitation, MM = Missing Value Source: NWS Daily Summary

Daily Weather History Graph

Daily Weather History Graph

Search for Another Location

Airport or City:

Trip Planner

Search our weather history database for the weather conditions in past years. The results will help you decide how hot, cold, wet, or windy it might be!

Date:

Astronomy

Apr. 14, 2014 Rise Set
Actual Time 6:42 AM AKDT 9:14 PM AKDT
Civil Twilight 5:56 AM AKDT 10:01 PM AKDT
Nautical Twilight 4:55 AM AKDT 11:03 PM AKDT
Astronomical Twilight 3:30 AM AKDT 12:31 AM AKDT
Moon 9:02 PM AKDT (4/14) 6:30 AM AKDT (4/14)
Length of Visible Light 16h 04m
Length of Day
14h 31m
Full, 100% of the Moon is Illuminated
Apr 14
Full
Apr 14
Full
Apr 21
Last Quarter
Apr 28
New
May 6
First Quarter

Hourly Weather History & Observations

Time (AKDT) Temp. Windchill Dew Point Humidity Pressure Visibility Wind Dir Wind Speed Gust Speed Precip Events Conditions
12:09 AM 36.0 °F 33.3 °F 33.1 °F 89% 30.05 in 10.0 mi NNE 3.5 mph - 0.00 in   Overcast
1:04 AM 35.1 °F - 33.1 °F 92% 30.05 in 6.0 mi Calm Calm - N/A   Overcast
1:38 AM 35.1 °F - 33.1 °F 92% 30.05 in 7.0 mi Calm Calm - N/A   Overcast
1:53 AM 35.1 °F 32.2 °F 33.1 °F 92% 30.05 in 10.0 mi NNW 3.5 mph - N/A   Overcast
2:53 AM 35.1 °F - 33.1 °F 92% 30.03 in 10.0 mi Calm Calm - N/A   Overcast
4:09 AM 32.0 °F 27.5 °F 30.9 °F 96% 30.02 in 2.5 mi North 4.6 mph - N/A   Mostly Cloudy
4:13 AM 32.0 °F 26.4 °F 30.9 °F 96% 30.02 in 1.0 mi NNW 5.8 mph - N/A   Mostly Cloudy
4:20 AM 32.0 °F 26.4 °F 30.9 °F 96% 30.01 in 0.8 mi North 5.8 mph - N/A   Mostly Cloudy
4:22 AM 32.0 °F 27.5 °F 30.9 °F 96% 30.01 in 1.2 mi North 4.6 mph - N/A   Mostly Cloudy
4:30 AM 32.0 °F 27.5 °F 30.0 °F 92% 30.01 in 1.0 mi North 4.6 mph - N/A   Mostly Cloudy
4:45 AM 30.9 °F 27.5 °F 30.0 °F 96% 30.01 in 0.5 mi North 3.5 mph - 0.00 in Fog , Snow Light Snow
4:53 AM 32.0 °F 28.7 °F 30.0 °F 92% 30.01 in 0.5 mi NNE 3.5 mph - 0.00 in Fog , Snow Light Snow
5:02 AM 30.9 °F 26.2 °F 30.0 °F 96% 30.01 in 1.2 mi NNW 4.6 mph - 0.00 in Snow Light Snow
5:07 AM 30.0 °F 26.5 °F 28.9 °F 96% 30.00 in 2.5 mi NNW 3.5 mph - 0.00 in   Scattered Clouds
5:16 AM 30.9 °F - 30.0 °F 96% 30.00 in 10.0 mi Calm Calm - 0.00 in   Partly Cloudy
5:27 AM 30.0 °F - 28.0 °F 92% 30.00 in 1.5 mi Calm Calm - 0.00 in Snow Light Snow
5:30 AM 30.0 °F - 28.0 °F 92% 30.00 in 0.8 mi Calm Calm - 0.00 in Snow Light Snow
5:53 AM 30.9 °F - 28.9 °F 92% 29.99 in 0.5 mi Calm Calm - 0.00 in Fog Light Freezing Fog
6:21 AM 30.9 °F - 28.9 °F 92% 29.99 in 1.2 mi Calm Calm - N/A   Overcast
6:27 AM 30.9 °F - 28.9 °F 92% 29.99 in 3.0 mi Calm Calm - N/A   Mostly Cloudy
6:38 AM 30.0 °F 26.5 °F 28.0 °F 92% 29.99 in 2.0 mi North 3.5 mph - N/A   Mostly Cloudy
6:43 AM 30.0 °F - 28.0 °F 92% 29.99 in 1.8 mi Calm Calm - N/A   Scattered Clouds
6:53 AM 30.0 °F - 28.9 °F 96% 29.99 in 1.8 mi Calm Calm - N/A   Clear
6:56 AM 30.0 °F 25.2 °F 28.9 °F 96% 29.99 in 3.0 mi North 4.6 mph - N/A   Clear
7:53 AM 30.9 °F 25.2 °F 30.0 °F 96% 29.98 in 10.0 mi NNW 5.8 mph - N/A   Clear
8:53 AM 34.0 °F 28.8 °F 30.9 °F 89% 29.97 in 10.0 mi North 5.8 mph - N/A   Clear
9:53 AM 39.9 °F 33.9 °F 30.9 °F 70% 29.96 in 10.0 mi North 9.2 mph - N/A   Partly Cloudy
10:53 AM 43.0 °F 38.2 °F 30.9 °F 62% 29.94 in 10.0 mi NNE 8.1 mph - N/A   Clear
11:53 AM 46.0 °F 42.5 °F 30.9 °F 56% 29.93 in 10.0 mi Variable 6.9 mph - N/A   Partly Cloudy
12:53 PM 48.0 °F - 28.9 °F 48% 29.91 in 10.0 mi WNW 4.6 mph - N/A   Partly Cloudy
1:53 PM 46.0 °F 42.5 °F 35.1 °F 66% 29.89 in 10.0 mi South 6.9 mph - N/A   Scattered Clouds
2:53 PM 46.0 °F 41.0 °F 36.0 °F 68% 29.88 in 10.0 mi SSE 10.4 mph - N/A   Overcast
3:53 PM 46.0 °F 41.9 °F 35.1 °F 66% 29.86 in 10.0 mi South 8.1 mph - N/A   Partly Cloudy
4:53 PM 45.0 °F 39.3 °F 36.0 °F 71% 29.85 in 10.0 mi South 11.5 mph - N/A   Clear
5:53 PM 45.0 °F 41.2 °F 35.1 °F 68% 29.84 in 10.0 mi SSE 6.9 mph - N/A   Mostly Cloudy
6:53 PM 43.0 °F 38.2 °F 36.0 °F 76% 29.84 in 10.0 mi SSE 8.1 mph - N/A   Overcast
7:53 PM 42.1 °F 37.7 °F 35.1 °F 76% 29.84 in 10.0 mi South 6.9 mph - N/A   Overcast
8:53 PM 41.0 °F 39.0 °F 35.1 °F 79% 29.84 in 10.0 mi South 3.5 mph - N/A   Overcast
9:53 PM 41.0 °F 39.0 °F 35.1 °F 79% 29.84 in 10.0 mi Variable 3.5 mph - N/A   Overcast
10:53 PM 37.9 °F 35.5 °F 34.0 °F 86% 29.84 in 10.0 mi NE 3.5 mph - N/A   Overcast
11:53 PM 37.0 °F 34.5 °F 34.0 °F 89% 29.84 in 10.0 mi NE 3.5 mph - N/A   Overcast